This demonstration page uses our WeatherBlox Daily Observations layout. Learn more.

Left ArrowRight Arrow

44.89941, -97.11507

Hourly Observations for January 5, 2021

Temp ( °F °C ) Dew Point ( °F °C ) Humidity (%) Winds ( mph kmh ) Pressure ( in mb ) Visibility ( mi km ) Precip ( " mm )
12:03 am 00:03 Clear 16 -8.9 15 -9.4 96 96 ESE 3 6 30.12 1020 10 16 0.00 0.00
12:53 am 00:53 Clear 16 -8.9 15 -9.4 96 96 Calm 30.04 1017 10 16 0.00 0.00
1:53 am 01:53 Clear 16 -8.9 14 -10 92 92 Calm 30.04 1017 10 16 0.00 0.00
2:53 am 02:53 Clear 12 -11.1 11 -11.7 95 95 S 3 6 30.05 1018 10 16 0.00 0.00
3:53 am 03:53 Clear 14 -10 12 -11.1 92 92 SE 3 6 30.04 1017 10 16 0.00 0.00
4:53 am 04:53 Clear 16 -8.9 15 -9.4 96 96 SE 5 7 30.04 1017 10 16 0.00 0.00
5:53 am 05:53 Clear 16 -8.9 14 -10 92 92 S 7 11 30.04 1017 10 16 0.00 0.00
6:53 am 06:53 Clear 18 -7.8 15 -9.4 88 88 SE 5 7 30.04 1017 10 16 0.00 0.00
7:53 am 07:53 Clear 20 -6.7 18 -7.8 92 92 SSE 6 9 30.02 1017 10 16 0.00 0.00
8:53 am 08:53 Sunny 21 -6.1 19 -7.2 92 92 SSE 7 11 30.04 1017 10 16 0.00 0.00
9:53 am 09:53 Sunny 26 -3.3 21 -6.1 81 81 SE 5 7 30.04 1017 10 16 0.00 0.00
10:53 am 10:53 Sunny 31 -0.6 23 -5 72 72 SSE 9 15 30.03 1017 10 16 0.00 0.00
11:53 am 11:53 Sunny 34 1.1 25 -3.9 70 70 SE 9 15 30.00 1016 10 16 0.00 0.00
12:53 pm 12:53 Sunny 36 2.2 26 -3.3 67 67 SE 10 17 29.97 1015 10 16 0.00 0.00
1:53 pm 13:53 Sunny 39 3.9 26 -3.3 60 60 SE 12 19 29.96 1014 10 16 0.00 0.00
2:53 pm 14:53 Mostly Cloudy 39 3.9 27 -2.8 62 62 SE 10 17 29.96 1015 10 16 0.00 0.00
3:53 pm 15:53 Cloudy 38 3.3 27 -2.8 65 65 ESE 9 15 29.97 1015 10 16 0.00 0.00
4:53 pm 16:53 Cloudy 38 3.3 28 -2.2 68 68 ESE 10 17 29.99 1016 10 16 0.00 0.00
5:53 pm 17:53 Cloudy 36 2.2 29 -1.7 76 76 ESE 8 13 30.01 1016 10 16 0.00 0.00
6:53 pm 18:53 Cloudy 36 2.2 29 -1.7 76 76 E 6 9 30.04 1017 10 16 0.00 0.00
7:53 pm 19:53 Cloudy 35 1.7 29 -1.7 78 78 ESE 8 13 30.05 1018 10 16 0.00 0.00
8:53 pm 20:53 Cloudy 34 1.1 30 -1.1 85 85 E 6 9 30.05 1018 10 16 0.00 0.00
9:53 pm 21:53 Cloudy 35 1.7 30 -1.1 82 82 E 6 9 30.04 1017 10 16 0.00 0.00
10:53 pm 22:53 Cloudy 35 1.7 29 -1.7 78 78 ESE 9 15 30.04 1017 10 16 0.00 0.00
11:53 pm 23:53 Cloudy with Light Rain 36 2.2 29 -1.7 76 76 SE 12 19 30.04 1017 9 14 0.01 0.25

Powered by AerisWeather